Location: Ko?ska Ulica
(50.2900°N, 22.7095°E)
Time: 16:59:37
(UTC+00:00)

Daily predictions for brighter satellites

Satellite Brightness Start Highest point End
(mag) Time Altitude Azimuth Time Altitude Azimuth Time Altitude Azimuth
GEOS 3 Rocket 4.1 19:17:51 10° NE 19:22:59 43° ESE 19:28:06 10° SSW
Cosmos 2278 Rocket 3.5 19:19:58 10° NNW 19:25:00 31° NE 19:29:58 10° ESE
Gblst 52 Del rocket 4.3 19:19:41 10° WNW 19:25:17 88° NNE 19:31:28 10° ESE
ATLAS 5 CENTAUR R/B 1.7 19:25:19 10° SSW 19:29:19 49° SE 19:33:50 10° NE
Cosmos 1844 Rocket 2.8 19:24:48 10° NNW 19:30:23 78° WSW 19:35:56 10° SSE
Meteor 2-10 Rocket 4.1 19:30:01 10° NNW 19:35:00 56° W 19:40:07 10° S
USA 245 3.3 19:31:43 10° S 19:35:04 79° WSW 19:39:21 10° NNW
Cosmos 1400 Rocket 2.8 19:33:31 10° NNW 19:37:33 89° W 19:41:29 10° S
Cosmos 1758 Rocket 3.6 19:33:52 10° S 19:38:22 83° E 19:42:54 10° NNE
SPOT 5 3.2 19:35:05 10° SSE 19:40:00 56° ENE 19:44:41 10° N
Spot 2 Rocket 3.8 19:37:50 10° S 19:42:54 71° WSW 19:48:02 10° NNW
Cosmos 2181 Rocket 4.2 19:36:44 10° N 19:43:03 61° ENE 19:49:13 10° SSE
Lacrosse 5 rocket 3.1 19:39:15 10° W 19:43:11 35° NNW 19:46:57 10° NE
BREEZE-M DEB (TANK) 4.3 19:40:50 10° SSW 19:43:40 16° SSE 19:45:23 10° ESE
USA 81 4.5 19:39:55 10° SSE 19:44:55 46° E 19:49:58 10° NNE
ATLAS 5 CENTAUR R/B 3.9 19:43:24 10° W 19:45:37 19° NNW 19:47:15 10° NNE
Cosmos 1745 Rocket 4.4 19:42:11 10° SSW 19:48:21 69° WNW 19:54:39 10° N
Landsat 7 4.2 19:43:59 10° S 19:48:42 66° WSW 19:53:28 10° NNW
USA 267 3.5 19:48:17 10° ESE 19:54:49 74° NNE 20:01:23 10° WNW
SPOT 1/Viking Rocket 3.8 19:51:57 10° S 19:57:04 69° WSW 20:02:15 10° NNW
Alouette 2 Rocket 4.0 19:57:00 10° NNW 20:00:42 58° WSW 20:05:31 10° S
Cosmos 1953 Rocket 3.5 19:57:10 10° S 20:01:28 79° E 20:05:49 10° NNE
Cosmos 2322 Rocket 3.6 19:58:25 10° WSW 20:03:44 43° NW 20:09:06 10° NNE
Cosmos 2084 3.5 20:03:19 10° NW 20:07:48 89° SW 20:11:33 14° SE
Cosmos 1328 4.4 20:03:59 10° SSW 20:07:54 58° WNW 20:11:50 10° N
Cosmos 1842 Rocket 3.9 20:04:08 10° N 20:08:24 52° ENE 20:11:52 15° SSE
SAR-Lupe-2 3.7 20:05:19 10° NNE 20:08:55 79° WNW 20:12:30 10° SSW
Cosmos 1455 4.3 20:08:23 10° NW 20:11:29 24° W 20:14:36 10° SW
Cosmos 1825 Rocket 4.4 20:12:58 10° SSW 20:17:17 51° WNW 20:21:40 10° N
ATLAS CENTAUR R/B 1.1 20:16:00 10° NW 20:19:42 69° SW 20:22:16 18° SSE
COSMOS 2428 2.7 20:17:43 10° SSW 20:23:17 63° ESE 20:28:55 10° NE
NOSS 3-4 (A) 4.1 20:18:09 10° NW 20:24:54 63° NE 20:32:23 10° ESE
Cosmos 1825 4.3 20:23:21 11° ESE 20:24:54 13° E 20:26:45 10° NE
NOSS 3-4 (C) 4.2 20:18:15 10° NW 20:25:01 63° NE 20:32:30 10° ESE
Cosmos 2322 3.9 20:21:31 10° SSW 20:27:15 81° WNW 20:33:01 10° NNE
NOSS 0 Rocket 4.4 20:23:36 12° S 20:28:49 40° ESE 20:34:30 10° NE
Meteor 1-27 4.5 20:24:53 10° NNW 20:30:36 72° W 20:35:46 13° S
Cosmos 1869 3.3 20:27:04 10° N 20:31:03 71° E 20:33:50 19° SSE
Terra 2.1 20:31:40 14° S 20:35:40 66° WSW 20:40:26 10° NNW
NOSS 3-3 (A) 3.9 20:30:07 10° SSW 20:35:58 69° SE 20:42:38 10° NE
NOSS 3-3 (C) 3.9 20:30:14 10° SSW 20:36:04 69° SE 20:42:45 10° NE
Cosmos 2237 Rocket 2.9 20:33:12 16° SSE 20:37:01 35° ESE 20:42:08 10° NE
Atlas Centaur 2 4.3 20:35:49 10° SSW 20:38:24 12° S 20:38:46 12° S
Cosmos 2219 Rocket 2.2 20:33:47 10° SSW 20:39:23 88° ESE 20:45:03 10° NNE
Cosmos 2360 Rocket 3.6 20:36:20 10° WSW 20:41:39 41° NW 20:47:01 10° NNE
Cosmos 1538 Rocket 4.1 20:36:43 10° SSW 20:42:06 87° WNW 20:47:28 10° NNE
Cosmos 2184 Rocket 4.0 20:42:25 13° S 20:47:58 79° E 20:54:19 10° NNE
Meteor 2-2 Rocket 4.3 20:42:50 10° NNW 20:48:43 84° W 20:53:04 18° S
Cosmos 2333 Rocket 2.4 20:43:33 10° SW 20:49:14 76° WNW 20:55:01 10° NNE
Thor Agena Rocket 4.2 20:45:00 10° NNE 20:49:47 38° E 20:52:43 20° SSE
Cosmos 1315 Rocket 3.9 20:47:11 10° NNW 20:51:01 40° W 20:54:13 14° SSW
ATLAS 2AS CENTAUR R/B 3.0 20:45:14 10° NW 20:52:58 78° NE 20:59:01 15° SE
Cosmos 2221 2.9 20:55:11 10° NNW 20:59:30 59° W 21:02:29 19° S
Cosmos 1371 Rocket 4.3 20:55:04 10° NNW 21:00:18 63° ENE 21:03:56 20° SE
USA 215 3.2 20:57:36 10° ENE 21:04:13 84° SSE 21:10:47 10° WSW
Iridium 2 3.9 21:01:53 10° N 21:05:41 58° E 21:07:33 27° SSE
EO 1 Del DPAF 3.7 21:04:51 10° NNE 21:08:28 43° E 21:09:59 28° SSE
Cosmos 1892 2.6 21:07:01 23° S 21:09:16 90° E 21:13:06 10° N
Cosmos 2278 Rocket 2.4 21:03:52 10° NW 21:09:29 62° WSW 21:13:09 22° S
Cosmos 2297 4.4 21:05:10 10° NNW 21:10:47 50° NE 21:15:17 15° SE
Cosmos 2112 Rocket 4.3 21:08:06 21° S 21:11:32 54° ESE 21:16:45 10° NNE
ATLAS 5 CENTAUR R/B 3.4 21:10:07 10° W 21:14:07 35° NNW 21:18:41 10° NE
Cosmos 1606 3.9 21:11:51 10° N 21:15:25 33° ENE 21:17:19 21° ESE
Aureole 2 Rocket 3.2 21:13:19 10° N 21:15:55 33° ENE 21:17:00 24° ESE
Cosmos 158 Rocket 3.9 21:13:10 22° S 21:16:14 61° ESE 21:21:06 10° NNE
Cosmos 1943 Rocket 3.6 21:12:32 10° NNW 21:17:38 32° NE 21:22:41 10° ESE
SL-16 R/B 3.2 21:18:56 22° SE 21:21:22 30° ESE 21:26:13 10° NE
Spot 4 3.8 21:20:00 25° SSE 21:22:49 87° WSW 21:27:37 10° NNW
Lacrosse 5 rocket 3.0 21:19:19 10° WNW 21:23:06 34° N 21:26:42 10° ENE
Cosmos 2056 Rocket 3.6 21:18:50 10° NNW 21:24:17 83° ENE 21:27:39 24° SSE
Nadezhda 3 Rocket 4.1 21:18:24 10° NNW 21:24:47 74° W 21:29:11 21° S
Cosmos 2058 3.3 21:25:00 19° SSW 21:27:48 60° WNW 21:31:56 10° N
Cosmos 2154 Rocket 4.0 21:23:03 18° SSW 21:27:50 83° W 21:34:07 10° N
Cosmos 1408 2.5 21:29:05 30° SSW 21:30:46 82° W 21:34:21 10° N
Cosmos 2341 Rocket 4.1 21:26:53 23° SSE 21:30:50 63° E 21:36:59 10° NNE
USA 267 3.6 21:34:05 22° SSE 21:38:06 49° SW 21:44:26 10° WNW
Cosmos 1076 Rocket 4.1 21:36:08 19° SSW 21:39:04 53° WNW 21:43:16 10° N
Cosmos 1680 Rocket 3.6 21:35:42 17° SSW 21:39:54 82° WNW 21:45:16 10° NNE
CZ-4C R/B 3.8 21:40:00 10° NW 21:46:26 45° NNE 21:53:59 10° ESE
EO 1 Delta rocket 4.3 21:43:42 10° N 21:48:41 77° WNW 21:52:50 20° SSW
Cosmos 2151 2.9 21:47:18 30° S 21:49:25 90° SE 21:53:44 10° N
COSMOS 2455 3.4 21:44:01 10° NNW 21:50:00 57° NE 21:55:18 13° SE
SL-8 Rocket 4.1 21:46:21 25° SSE 21:50:03 65° E 21:56:09 10° NNE
Helios 1A 3.7 21:48:16 24° SE 21:50:26 45° ENE 21:54:27 10° N
Cosmos 1452 Rocket 4.0 21:46:06 10° NNW 21:51:18 55° ENE 21:54:48 20° SE
IRIDIUM 114 4.5 21:52:07 27° SSE 21:54:53 64° E 22:00:04 10° N
Cosmos 1727 Rocket 4.4 21:53:10 10° N 21:59:18 57° ENE 22:03:21 22° SSE
Cosmos 1825 2.6 21:58:08 28° SW 21:59:56 58° WNW 22:03:41 10° N
ALOS 2 2.6 21:58:03 31° S 22:00:04 74° WSW 22:04:29 10° NNW
Cosmos 1408 Rocket 4.0 21:58:51 30° SSE 22:00:38 47° E 22:04:53 10° NNE
Cosmos 1340 3.2 21:59:38 34° SE 22:00:46 45° E 22:04:22 10° NNE
Cosmos 1933 3.3 21:56:44 10° N 22:00:47 79° E 22:02:24 35° SSE
Cosmos 1151 Rocket 3.0 21:56:56 10° N 22:01:19 85° E 22:03:13 33° SSE
Cosmos 2369 Rocket 3.1 21:56:44 10° NNW 22:02:06 44° NE 22:07:04 12° ESE
Cosmos 1980 4.2 21:56:59 10° SW 22:02:34 59° NW 22:08:10 10° NNE
IRIDIUM 103 4.3 22:01:14 28° S 22:04:01 76° E 22:09:15 10° N
APEX 2.8 22:01:50 10° NNW 22:04:31 53° ENE 22:05:07 41° ESE
Cosmos 44 3.1 22:05:15 33° S 22:06:57 56° SE 22:11:19 10° NE
COSMOS 2428 4.5 22:03:01 10° WSW 22:07:59 30° NW 22:13:00 10° NNE
GP-B 3.1 22:04:52 10° N 22:09:20 81° W 22:11:23 31° S
Cosmos 371 Rocket 3.2 22:04:27 10° NNW 22:09:20 87° WSW 22:11:47 30° SSE
NOSS 3-4 (A) 4.4 22:09:14 10° NW 22:15:45 42° WSW 22:19:46 24° S
NOSS 3-4 (C) 4.4 22:09:20 10° NW 22:15:52 42° WSW 22:19:55 24° S
Helios 1B rocket 4.0 22:14:19 10° NE 22:17:39 23° E 22:19:04 19° ESE
Nimbus 7 Rocket 4.5 22:12:27 10° NNE 22:18:25 77° WNW 22:22:22 22° SSW
SL-4 R/B 1.6 22:19:54 39° NW 22:19:54 39° NW 22:21:25 10° NNW
Cosmos 2237 Rocket 3.0 22:15:26 10° SW 22:20:56 48° NW 22:26:30 10° NNE
Genesis I 3.8 22:18:36 15° WSW 22:21:44 55° NW 22:25:35 10° NE
Cosmos 1782 3.1 22:18:01 10° N 22:21:57 58° ENE 22:23:34 32° SE
IRIDIUM 106 4.3 22:19:31 28° SSW 22:22:20 78° W 22:27:36 10° N
CREW DRAGON DEMO-1 DEB 2.7 22:22:53 59° SSW 22:23:14 66° SSE 22:26:17 10° ENE
Cosmos 2344 3.6 22:16:24 10° SW 22:23:52 88° NW 22:32:15 10° NE
Cosmos 2219 Rocket 4.4 22:19:42 10° W 22:24:06 23° NW 22:28:34 10° NNE
Cosmos 1346 Rocket 2.9 22:28:04 37° SSE 22:29:23 59° E 22:33:16 10° NNE
CZ-2D R/B 4.4 22:32:04 10° ENE 22:33:47 11° E 22:35:29 10° ESE
RESURS DK-1 3.2 22:36:20 10° NNW 22:40:22 48° NE 22:43:23 17° SE
Cosmos 1515 Rocket 3.6 22:37:08 10° NNW 22:41:27 66° W 22:43:15 34° SSW
CZ-4 R/B 4.2 22:37:53 10° NNE 22:42:27 50° E 22:44:35 29° SSE
BREEZE-M DEB (TANK) 3.8 22:40:46 10° W 22:41:21 13° W 22:41:21 13° W
ATLAS 2AS CENTAUR R/B 3.8 22:36:57 10° NW 22:43:16 31° WSW 22:46:25 22° SSW
USA 215 4.0 22:40:40 10° ENE 22:47:03 56° NNW 22:53:25 10° W
Aureole 2 Rocket 4.3 22:47:43 10° WNW 22:48:59 14° W 22:48:59 14° W
Gbstr 26 Del rocket 3.1 22:49:28 38° S 22:50:17 45° SSE 22:54:23 10° ENE
Cosmos 1606 4.4 22:47:53 10° NW 22:50:58 23° W 22:52:19 19° WSW
Cosmos 2278 Rocket 4.5 22:51:34 10° W 22:52:23 10° W 22:53:12 10° WSW
Cosmos 44 Rocket 4.5 22:51:44 22° SE 22:53:05 25° ESE 22:56:58 10° ENE
Cosmos 2218 Rocket 4.5 22:50:54 21° SSW 22:55:07 55° WNW 23:01:20 10° N
Cosmos 304 Rocket 3.8 22:50:56 10° NNW 22:55:45 69° WSW 22:58:03 30° S
Cosmos 2228 Rocket 3.1 22:52:34 10° NNW 22:57:11 82° W 22:59:19 32° S
Cosmos 1943 3.9 22:56:06 24° SSE 22:58:52 40° ESE 23:04:07 10° NE
Cosmos 1862 3.9 22:58:33 30° SSE 23:00:07 46° E 23:03:58 10° NNE
Cosmos 1943 Rocket 2.4 22:56:09 10° NW 23:01:42 57° WSW 23:04:40 27° S
Cosmos 1633 2.8 23:01:11 36° SW 23:02:26 60° WNW 23:06:02 10° N
Landsat 4 3.8 22:58:41 10° N 23:02:28 69° WNW 23:03:59 34° SSW
Lacrosse 5 rocket 1.1 22:58:40 10° WNW 23:02:40 84° NNE 23:06:18 11° ESE
Cosmos 494 Rocket 4.4 23:00:18 27° SSE 23:02:49 50° ESE 23:07:48 10° NNE
CRYOSAT 2 4.4 22:58:03 10° N 23:02:57 79° E 23:05:26 29° S
SL-16 R/B 2.7 23:00:46 16° SW 23:05:12 55° NW 23:10:49 10° NNE
Cosmos 1821 Rocket 3.9 23:05:52 26° S 23:09:33 84° E 23:15:41 10° N
Cosmos 2123 Rocket 4.2 23:04:44 10° N 23:10:57 67° ENE 23:15:27 19° SSE
BREEZE-M DEB (TANK) 4.4 23:04:54 10° SW 23:13:44 35° SSE 23:17:21 10° E
Cosmos 1633 Rocket 4.5 23:11:22 17° SE 23:13:51 29° E 23:17:40 10° NNE
Cosmos 1743 Rocket 3.8 23:12:36 29° SW 23:14:38 59° WNW 23:18:56 10° N
Sich 1 3.4 23:15:28 27° SSE 23:17:32 53° E 23:21:46 10° NNE
Cosmos 1331 Rocket 4.0 23:14:58 10° NNW 23:20:19 78° WSW 23:23:39 23° SSE
Cosmos 1048 Rocket 4.1 23:19:32 25° SSW 23:22:42 76° WNW 23:27:59 10° NNE
Meteor 1-29 2.9 23:24:37 10° NNE 23:28:00 75° ESE 23:29:10 38° S
Cosmos 405 4.4 23:25:22 10° NW 23:28:19 25° W 23:29:08 22° WSW
Meteor 1-10 Rocket 4.3 23:26:59 10° NNW 23:32:32 66° W 23:35:50 24° S
SL-4 R/B 3.3 23:32:31 15° ESE 23:32:48 16° ESE 23:34:38 10° ENE
Iridium 4 Rocket 4.4 23:28:48 17° SSE 23:33:10 52° E 23:38:38 10° NNE
PSLV R/B 3.9 23:30:13 10° N 23:34:20 53° WNW 23:36:34 25° SW
Cosmos 292 Rocket 4.2 23:29:50 10° NNW 23:34:38 61° ENE 23:39:10 11° SE
Meteor 2-6 Rocket 4.4 23:29:34 10° NNW 23:34:55 53° W 23:37:54 25° SSW
Cosmos 389 Rocket 2.7 23:31:48 10° N 23:35:20 67° ENE 23:37:05 27° SSE
CZ-4C R/B 2.9 23:28:27 10° NW 23:35:32 71° SW 23:43:43 10° SSE
COSMOS 2455 3.6 23:30:20 10° NW 23:35:42 34° WSW 23:38:24 23° SSW
Cosmos 1110 Rocket 4.3 23:32:14 10° NNW 23:37:22 52° WSW 23:40:15 25° S
SL-16 R/B 2.9 23:31:34 10° SSE 23:37:40 64° ENE 23:43:52 10° NNW
Cosmos 1605 Rocket 4.4 23:34:31 19° SSE 23:39:05 60° E 23:45:17 10° NNE
Cosmos 1603 3.7 23:36:25 24° SSW 23:40:00 90° E 23:45:46 10° NNE
IRAS Rocket 4.2 23:37:09 18° SSE 23:41:21 89° ENE 23:46:53 10° NNW
Cosmos 1269 Rocket 4.1 23:39:58 25° S 23:43:05 69° ESE 23:48:22 10° NNE
Resurs 1-4 Rocket 2.9 23:39:53 10° NNE 23:44:57 42° E 23:48:45 17° SSE
Cosmos 2369 Rocket 2.8 23:40:57 10° NW 23:46:04 38° WSW 23:48:49 23° SSW
Cosmos 1666 Rocket 3.7 23:44:14 25° S 23:46:43 72° E 23:51:06 10° NNE
SeaSat 1 2.9 23:43:35 10° NE 23:48:25 50° ESE 23:51:20 23° S
Meteor 2-20 Rocket 4.4 23:44:25 10° NNW 23:50:35 85° W 23:55:16 18° S
ISS -2.9 23:51:00 30° SSE 23:51:30 32° SSE 23:54:32 10° E
Helios 1B rocket 3.3 23:49:10 10° N 23:53:04 41° WNW 23:55:23 21° SW
